User: anonymous   Login
Location: Bonn
(50.7330°N, 7.1000°E)
Time: 12:50:58
(UTC+01:00)
Language:

Iridium 84 - Orbit

View from above orbital plane
View from above orbital plane
View from above satellite
View from above satellite

Ground track
Ground track

The orbit data is extracted from the following two-line orbital elements,

1 25530U 98066D   16345.35133904  .00000228  00000-0  74349-4 0  9994
2 25530  86.3973  68.9257 0002142  95.7679 264.3761 14.34220047949932
Epoch (UTC): 10 December 2016 08:25:55
Eccentricity: 0.0002142
inclination: 86.3973°
perigee height: 776 km
apogee height: 779 km
right ascension of ascending node: 68.9257°
argument of perigee: 95.7679°
revolutions per day: 14.34220047
mean anomaly at epoch: 264.3761°
orbit number at epoch: 94993

The dashed part of the orbit path shows where the satellite is in the earth's shadow,  

DLR